Regional Weather Roundup
Issued by NWS

Home | Current Version | Previous Version | Graphics & Text | Print | Product List | Glossary On
Versions: 1 2 3 4 5 6 7 8 9 10 11 12 13 14 15 16 17 18 19 20 21 22 23 24 25 26 27 28 29 30 31 32 33 34 35 36 37 38 39 40 41 42 43 44 45 46 47 48 49 50
353
ASUS45 KBOI 061210
RWRID

IDAHO REGIONAL WEATHER ROUNDUP
NATIONAL WEATHER SERVICE BOISE ID
500 AM MST TUE DEC 06 2016

NOTE: "FAIR" INDICATES FEW OR NO CLOUDS BELOW 12000 FEET
WITH NO SIGNIFICANT WEATHER AND/OR OBSTRUCTIONS TO VISIBILITY

IDZ012-014-061300-
SOUTHWEST IDAHO


CITY           SKY/WX    TMP DP  RH WIND       PRES   REMARKS
BOISE          CLOUDY    24  11  57 SE12      29.90F WCI  13
CALDWELL       FLURRIES  25  17  72 SE17G24   29.92F WCI  12
MOUNTAIN HOME  CLOUDY    22  15  74 SE15      29.91S WCI   9
$$

IDZ016-017-061300-
SOUTHCENTRAL IDAHO


CITY           SKY/WX    TMP DP  RH WIND       PRES   REMARKS
BURLEY         CLEAR      7   3  84 CALM      29.88F
JEROME         PTCLDY    12   8  84 NE14      29.89F WCI  -3
TWIN FALLS     CLEAR      7   0  73 SE8       29.88F WCI  -6
$$

IDZ019>023-061300-
SOUTHEAST IDAHO


CITY           SKY/WX    TMP DP  RH WIND       PRES   REMARKS
IDAHO FALLS    CLEAR      4  -1  80 N5        29.93F WCI  -5
POCATELLO      CLEAR     10   3  73 NE8       29.92F WCI  -2
REXBURG        CLEAR      6   1  80 CALM      29.92F
$$

IDZ006-010-011-018-031-032-061300-
CENTRAL IDAHO MOUNTAINS


CITY           SKY/WX    TMP DP  RH WIND       PRES   REMARKS
MCCALL         LGT SNOW  16  12  84 CALM      29.77F FOG
HAILEY         PTCLDY     3  -4  72 NW13      29.88F WCI -14
STANLEY          N/A    -10 -17  71 S3        29.79F
SALMON         CLOUDY     7   1  78 CALM      29.95S
CHALLIS        MOCLDY     6   1  80 NW5       29.87F WCI  -3
$$

IDZ002-004-006-007-026-061300-
NORTHERN IDAHO


CITY           SKY/WX    TMP DP  RH WIND       PRES   REMARKS
LEWISTON       LGT SNOW  30  27  88 E6        29.93S FOG     WCI  24
LOWELL           N/A     28  21  75 SW5       29.99S WCI  23
COEUR D`ALENE  CLOUDY    23  16  74 N14       29.95S WCI  11
MULLAN PASS    CLOUDY     9   6  88 SE7       29.74F WCI  -2
$$




USA.gov is the U.S. government's official web portal to all federal, state and local government web resources and services.